Regional Weather Roundup
Issued by NWS State College, PA

Home | Current Version | Previous Version | Text Only | Print | Product List | Glossary On
Versions: 1 2 3 4 5 6 7 8 9 10 11 12 13 14 15 16 17 18 19 20 21 22 23 24 25 26 27 28 29 30 31 32 33 34 35 36 37 38 39 40 41 42 43 44 45 46 47 48 49 50
041
ASUS41 KCTP 291810
RWRCTP

REGIONAL WEATHER ROUNDUP
NATIONAL WEATHER SERVICE STATE COLLEGE PA
200 PM EDT SAT APR 29 2017

Note: "fair" indicates few or no clouds below 12,000 feet with no
significant weather and/or obstructions to visibility.

* = STATION THAT DOES NOT REPORT PRECIPITATION /E.G. RAIN...SNOW...ETC/
    THUNDER OR FOG.

PAZ002>004-007>009-013>016-020>023-029>032-291900-
WESTERN PENNSYLVANIA

CITY           SKY/WX    TMP DP  RH WIND       PRES   REMARKS
ERIE           CLOUDY    50  48  93 CALM      30.17F FOG
MEADVILLE      LGT RAIN  53  52  96 NE5       30.16F
FRANKLIN*      CLOUDY    55  52  88 CALM      30.17F
NEW CASTLE     LGT RAIN  57  57 100 VRB3      30.10F
BEAVER COUNTY  RAIN      57  57 100 CALM      30.11F
BUTLER*        CLOUDY    61  57  88 N3        30.16F
PITTSBURGH INT TSTM      64  64 100 CALM      30.14F
PITTSBURGH     CLOUDY    64  61  90 NW7       30.15F
INDIANA*       CLOUDY    66  64  94 NW8G17    30.22R FOG
LATROBE        TSTM      68  54  60 W7        30.21R FOG
WASHINGTON CO* CLOUDY    64  61  88 CALM      30.17F
$$

PAZ004>006-010>012-017>019-024>028-033>037-041-042-045-046-049>053-291900-
CENTRAL PENNSYLVANIA

CITY           SKY/WX    TMP DP  RH WIND       PRES   REMARKS
BRADFORD       CLOUDY    55  55 100 NW10      30.15R FOG
DUBOIS         LGT RAIN  59  57  93 W15G26    30.18R FOG
CLEARFIELD     LGT RAIN  69  60  73 W16G25    30.15R
JOHNSTOWN      CLOUDY    69  59  70 W18G26    30.18R
ALTOONA        CLOUDY    78  58  49 W21G26    30.13R
STATE COLLEGE  PTSUNNY   73  59  60 W13G21    30.10R
WILLIAMSPORT   PTSUNNY   70  61  73 W7        30.06R
SELINSGROVE    CLOUDY    76  64  66 NW5       30.06R
FT INDIANTOWN  MOSUNNY   80  60  51 W14G21    30.04R
CAPITAL CITY   CLOUDY    80  62  54 W12       30.05R
HARRISBURG     CLOUDY    78  63  59 NW12      30.04R
YORK           MOSUNNY   82  65  56 W7        30.05R
$$

PAZ038>040-043-044-047-048-054-055-060>062-067>071-291900-
EASTERN PENNSYLVANIA

CITY           SKY/WX    TMP DP  RH WIND       PRES   REMARKS
SCRANTON       CLOUDY    73  62  68 SW10      30.02R
MOUNT POCONO   PTSUNNY   71  60  68 W14       30.04R
ALLENTOWN      CLOUDY    80  62  54 W17       30.01R
QUAKERTOWN*    CLOUDY    81  63  54 W6        30.02S
READING        PTSUNNY   81  63  54 W16G22    30.01S
LANCASTER      PTSUNNY   80  66  62 W13       30.04R
COATESVILLE    CLOUDY    81  63  54 NW18      30.06R
POTTSTOWN      MOSUNNY   81  60  48 W7        30.03R
BLUE BELL      MOSUNNY   81  61  50 W7G20     30.02S
DOYLESTOWN     MOSUNNY   81  62  52 W9        30.00R
WILLOW GROVE   NOT AVBL
NORTH PHILA    PTSUNNY   85  65  51 W9        30.01R
PHILADELPHIA   PTSUNNY   84  62  47 SW15      30.01R
$$




USA.gov is the U.S. government's official web portal to all federal, state and local government web resources and services.